Weather in Pefkochori

Greece     39°59′21″N   23°36′41″E
temp.,
°C
wind,
m/s
gust,
m/s
humid.,
%
clouds,
%
prec.,
mm/h
press.,
hPa
HPBL,
m
12 may, wed
wed1200:00+16se01605 0.0 101575
03:00+15e11630 0.0 1013110
06:00+15ene11620 0.0 1012127
09:00+18sw11531 0.0 1012376
12:00+20sse3348100 0.0 1011690
15:00+20se6548100 0.0 1009530
18:00+19se4554100 0.0 1008336
21:00+16se46670 0.0 1007198
13 may, thu
thu1300:00+16e23680 0.0 1008121
03:00+16nnw11661 0.0 100774
06:00+16nnw12665 0.0 1007104
09:00+18nw22580 0.0 1008356
12:00+21nw11540 0.0 1008547
15:00+22s23500 0.0 1007754
18:00+22sse45533 0.0 1006469
21:00+18se47745 0.0 1007202
14 may, fri
fri1400:00+17se23824 0.0 100856
03:00+17nnw11800 0.0 100821
06:00+17wnw458162 0.0 1009167
09:00+19wnw46691 0.0 1011345
12:00+21w33530 0.0 1011561
15:00+23sw34430 0.0 1011858
18:00+23sse434753 0.0 1011522
21:00+19sse597095 0.0 1011247
15 may, sat
sat1500:00+18sse59740 0.0 1011183
03:00+18ssw47655 0.0 1010143
06:00+17ese1177100 0.0 101040
09:00+19se226678 0.0 1010223
12:00+22w4552100 0.0 1011580
15:00+21nw3357100 0.0 1010462
18:00+20ssw61057100 0.1 1008567
21:00+19ssw610670 0.1 1007313
16 may, sun
sun1600:00+18ssw59705 0.0 1006322
03:00+17nw45764 0.0 1006150
06:00+16wnw47672 0.0 1005236
09:00+18wnw67585 0.0 1006595
12:00+20wnw67504 0.0 1006701
15:00+22w57440 0.0 1005712
18:00+22wsw474638 0.0 1004370
21:00+19w34635 0.0 100667